[TLELIST] Archives

 

Current TLEs

December 25th 2006 PST

HST 1 20580U 90037B 06357.97659043 +.00000562 +00000-0 +30914-4 0 07798 2 20580 028.4683 252.5811 0003646 039.0966 320.9891 15.00165045713622 ISS (ZARYA) 1 25544U 98067A 06359.35614703 .00022512 00000-0 14087-3 0 3250 2 25544 051.6367 281.9631 0023846 016.0716 081.6189 15.76355071463325 CXO 1 25867U 99040B 06358.12500000 +.00000471 +00000-0 +00000-0 0 00151 2 25867 060.8456 093.0652 6000415 287.1263 356.9251 00.37805549001596 ____________________________________________________________________ These 2-Line ...Continue Reading

Current TLEs

December 24th 2006 PST

HST 1 20580U 90037B 06358.04311905 .00000561 00000-0 30865-4 0 7670 2 20580 028.4683 252.1469 0003662 040.1754 319.9107 15.00165095713637 ISS (ZARYA) 1 25544U 98067A 06358.40614704 .00023082 00000-0 14460-3 0 3197 2 25544 051.6371 286.8611 0023776 012.7281 090.2660 15.76313585463171 CXO 1 25867U 99040B 06358.12500000 +.00000471 +00000-0 +00000-0 0 00151 2 25867 060.8456 093.0652 6000415 287.1263 356.9251 00.37805549001596 ____________________________________________________________________ These 2-Line ...Continue Reading

Current TLEs

December 23rd 2006 PST

HST 1 20580U 90037B 06355.91419999 +.00000674 +00000-0 +39704-4 0 07671 2 20580 028.4691 266.0266 0003523 017.0547 343.0159 15.00164242713317 ISS (ZARYA) 1 25544U 98067A 06356.51435185 .00024090 00000-0 15130-3 0 3084 2 25544 051.6377 296.6087 0023725 005.4865 155.1358 15.76226297462878 CXO 1 25867U 99040B 06355.50000000 +.00000470 +00000-0 +00000-0 0 00143 2 25867 060.8318 093.1206 5994907 287.1634 359.5733 00.37802925001586 ____________________________________________________________________ These 2-Line ...Continue Reading

Current TLEs

December 22nd 2006 PST

HST 1 20580U 90037B 06355.84767083 .00000695 00000-0 41386-4 0 7653 2 20580 028.4691 266.4608 0003490 015.6648 344.4047 15.00164374713306 ISS (ZARYA) 1 25544U 98067A 06356.37552241 .00026395 00000-0 16540-3 0 3065 2 25544 051.6373 297.3224 0023575 005.5192 086.7967 15.76221988462857 CXO 1 25867U 99040B 06355.50000000 +.00000470 +00000-0 +00000-0 0 00143 2 25867 060.8318 093.1206 5994907 287.1634 359.5733 00.37802925001586 ____________________________________________________________________ These 2-Line ...Continue Reading

Current TLEs

December 21st 2006 PST

HST 1 20580U 90037B 06353.91833759 +.00000622 +00000-0 +35638-4 0 07768 2 20580 028.4691 279.0435 0003310 354.1473 005.9076 15.00162342713014 ISS (ZARYA) 1 25544U 98067A 06355.36940356 .00022220 00000-0 14038-3 0 3019 2 25544 051.6365 302.5058 0023621 001.4785 137.9297 15.76153315462692 CXO 1 25867U 99040B 06352.87500000 +.00000471 +00000-0 +00000-0 0 00135 2 25867 060.8173 093.1624 5989394 287.2329 002.1772 00.37802755001579 ____________________________________________________________________ These 2-Line ...Continue Reading

Current TLEs

December 20th 2006 PST

HST 1 20580U 90037B 06354.11792330 .00000761 00000-0 46551-4 0 7647 2 20580 028.4690 277.7386 0003426 355.7887 004.2672 15.00163078713041 ISS (ZARYA) 1 25544U 98067A 06354.35451549 .00019777 00000-0 12583-3 0 2945 2 25544 051.6365 307.7366 0023389 358.0432 138.8872 15.76094107462537 CXO 1 25867U 99040B 06352.87500000 +.00000471 +00000-0 +00000-0 0 00135 2 25867 060.8173 093.1624 5989394 287.2329 002.1772 00.37802755001579 ____________________________________________________________________ These 2-Line ...Continue Reading

Current TLEs

December 19th 2006 PST

HST 1 20580U 90037B 06352.85387607 .00000884 00000-0 56139-4 0 7631 2 20580 028.4691 285.9811 0003402 342.6636 017.3834 15.00162514712854 ISS (ZARYA) 1 25544U 98067A 06353.14498317 .00015255 00000-0 98267-4 0 2878 2 25544 051.6360 313.9667 0023744 351.9925 117.5926 15.76039627462348 CXO 1 25867U 99040B 06352.87500000 +.00000471 +00000-0 +00000-0 0 00135 2 25867 060.8173 093.1624 5989394 287.2329 002.1772 00.37802755001579 ____________________________________________________________________ These 2-Line ...Continue Reading

Current TLEs

December 18th 2006 PST

HST 1 20580U 90037B 06350.92454141 +.00000872 +00000-0 +55178-4 0 07724 2 20580 028.4692 298.5602 0003449 321.9857 038.0511 15.00159613712565 ISS (ZARYA) 1 25544U 98067A 06352.51608796 .00016039 00000-0 10317-3 0 2827 2 25544 051.6373 317.2076 0023719 349.6262 149.3814 15.76021060462243 CXO 1 25867U 99040B 06350.20833333 +.00000456 +00000-0 +00000-0 0 00120 2 25867 060.8011 093.1990 5985181 287.3083 359.0893 00.37804090001565 ____________________________________________________________________ These 2-Line ...Continue Reading

Current TLEs

December 17th 2006 PST

HST 1 20580U 90037B 06351.19065633 .00000902 00000-0 57525-4 0 7629 2 20580 028.4693 296.8255 0003436 325.0278 035.0084 15.00160149712602 ISS (ZARYA) 1 25544U 98067A 06351.50243056 .00045933 00000-0 28680-3 0 2758 2 25544 051.6365 322.4287 0023582 345.7788 158.2461 15.76004282462080 CXO 1 25867U 99040B 06350.20833333 +.00000456 +00000-0 +00000-0 0 00120 2 25867 060.8011 093.1990 5985181 287.3083 359.0893 00.37804090001565 ____________________________________________________________________ These 2-Line ...Continue Reading

Current TLEs

December 16th 2006 PST

HST 1 20580U 90037B 06349.26131856 .00000679 00000-0 40132-4 0 7611 2 20580 028.4692 309.4018 0003530 303.9688 056.0566 15.00156812712312 ISS (ZARYA) 1 25544U 98067A 06350.47854324 .00028191 00000-0 17845-3 0 2702 2 25544 051.6358 327.6996 0022056 342.4287 108.8145 15.75999747461929 CXO 1 25867U 99040B 06350.20833333 +.00000456 +00000-0 +00000-0 0 00120 2 25867 060.8011 093.1990 5985181 287.3083 359.0893 00.37804090001565 ____________________________________________________________________ These 2-Line ...Continue Reading
  • This mailing list is a public mailing list - anyone may join or leave, at any time.
  • This mailing list is announce-only.

International Space Station (ISS) / Hubble Space Telescope (HST) / Chandra X-Ray Observatory Orbital Data via EMAIL

Privacy Policy:

Private list